Time,TemperatureF,DewpointF,PressureIn,WindDirection,WindDirectionDegrees,WindSpeedMPH,WindSpeedGustMPH,Humidity,HourlyPrecipIn,Conditions,Clouds,dailyrainin,SoftwareType,DateUTC
2013-05-25 00:05:00,47.3,46.8,29.88,WSW,247,2.7,-999.0,98,-99.99,,,0.00,Acu-Link.com,2013-05-25 07:05:00,
2013-05-25 00:20:00,47.3,46.8,29.88,WSW,247,3.7,-999.0,98,-99.99,,,0.00,Acu-Link.com,2013-05-25 07:20:00,
2013-05-25 00:35:00,47.3,46.8,29.88,SW,225,1.7,-999.0,98,-99.99,,,0.00,Acu-Link.com,2013-05-25 07:35:00,
2013-05-25 00:50:00,47.8,47.3,29.87,ESE,112,1.7,-999.0,98,-99.99,,,0.00,Acu-Link.com,2013-05-25 07:50:00,
2013-05-25 01:05:00,47.8,47.3,29.86,WNW,292,0.0,-999.0,98,-99.99,,,0.00,Acu-Link.com,2013-05-25 08:05:00,
2013-05-25 01:20:00,48.2,37.8,29.86,SSE,157,2.7,-999.0,67,-99.99,,,0.00,Acu-Link.com,2013-05-25 08:20:00,
2013-05-25 01:35:00,48.0,31.7,29.86,WNW,292,2.2,-999.0,53,-99.99,,,0.00,Acu-Link.com,2013-05-25 08:35:00,
2013-05-25 01:50:00,47.8,28.6,29.85,SW,225,2.2,-999.0,47,-99.99,,,0.00,Acu-Link.com,2013-05-25 08:50:00,
2013-05-25 02:06:00,47.7,27.4,29.86,SSW,202,1.7,-999.0,45,-99.99,,,0.00,Acu-Link.com,2013-05-25 09:06:00,
2013-05-25 02:22:00,47.5,27.2,29.85,WSW,247,0.0,-999.0,45,-99.99,,,0.00,Acu-Link.com,2013-05-25 09:22:00,
2013-05-25 02:37:00,47.7,-2.4,29.86,WNW,292,1.1,-999.0,12,-99.99,,,0.00,Acu-Link.com,2013-05-25 09:37:00,
2013-05-25 02:52:00,47.3,-1.0,29.84,NE,45,2.7,-999.0,13,-99.99,,,0.00,Acu-Link.com,2013-05-25 09:52:00,
2013-05-25 03:07:00,46.8,11.0,29.84,ENE,67,0.0,-999.0,23,-99.99,,,0.00,Acu-Link.com,2013-05-25 10:07:00,
2013-05-25 03:22:00,46.0,8.3,29.84,NE,45,0.0,-999.0,21,-99.99,,,0.00,Acu-Link.com,2013-05-25 10:22:00,
2013-05-25 03:38:00,45.9,6.0,29.85,ESE,112,2.7,-999.0,19,-99.99,,,0.00,Acu-Link.com,2013-05-25 10:38:00,
2013-05-25 03:53:00,46.9,1.7,29.85,North,0,0.0,-999.0,15,-99.99,,,0.00,Acu-Link.com,2013-05-25 10:53:00,
2013-05-25 04:08:00,46.6,11.8,29.85,WNW,292,2.7,-999.0,24,-99.99,,,0.00,Acu-Link.com,2013-05-25 11:08:00,
2013-05-25 04:23:00,46.8,-6.9,29.85,WSW,247,2.2,-999.0,10,-99.99,,,0.00,Acu-Link.com,2013-05-25 11:23:00,
2013-05-25 04:38:00,45.9,-2.1,29.84,ESE,112,0.0,-999.0,13,-99.99,,,0.00,Acu-Link.com,2013-05-25 11:38:00,
2013-05-25 04:53:00,46.8,-4.9,29.84,West,270,0.0,-999.0,11,-99.99,,,0.00,Acu-Link.com,2013-05-25 11:53:00,
2013-05-25 05:08:00,46.2,-9.5,29.85,SE,135,1.1,-999.0,9,-99.99,,,0.00,Acu-Link.com,2013-05-25 12:08:00,
2013-05-25 05:23:00,46.6,-17.2,29.85,SSW,202,0.0,-999.0,6,-99.99,,,0.00,Acu-Link.com,2013-05-25 12:23:00,
2013-05-25 05:38:00,45.7,-21.3,29.86,South,180,0.0,-999.0,5,-99.99,,,0.00,Acu-Link.com,2013-05-25 12:38:00,
2013-05-25 05:54:00,45.1,-8.2,29.85,South,180,0.0,-999.0,10,-99.99,,,0.00,Acu-Link.com,2013-05-25 12:54:00,
2013-05-25 06:09:00,45.1,-8.2,29.87,WNW,292,0.0,-999.0,10,-99.99,,,0.00,Acu-Link.com,2013-05-25 13:09:00,
2013-05-25 06:24:00,45.1,-2.8,29.86,SSE,157,1.1,-999.0,13,-99.99,,,0.00,Acu-Link.com,2013-05-25 13:24:00,
2013-05-25 06:39:00,45.5,2.0,29.86,South,180,1.7,-999.0,16,-99.99,,,0.00,Acu-Link.com,2013-05-25 13:39:00,
2013-05-25 06:54:00,45.7,11.0,29.85,SSW,202,1.7,-999.0,24,-99.99,,,0.00,Acu-Link.com,2013-05-25 13:54:00,
2013-05-25 07:09:00,46.9,5.6,29.86,SW,225,0.0,-999.0,18,-99.99,,,0.00,Acu-Link.com,2013-05-25 14:09:00,
2013-05-25 07:24:00,48.7,1.7,29.86,SSE,157,1.1,-999.0,14,-99.99,,,0.00,Acu-Link.com,2013-05-25 14:24:00,
2013-05-25 07:39:00,50.2,4.4,29.86,West,270,0.0,-999.0,15,-99.99,,,0.00,Acu-Link.com,2013-05-25 14:39:00,
2013-05-25 07:54:00,51.4,0.5,29.88,WNW,292,0.0,-999.0,12,-99.99,,,0.00,Acu-Link.com,2013-05-25 14:54:00,
2013-05-25 08:10:00,52.2,2.9,29.89,South,180,1.1,-999.0,13,-99.99,,,0.00,Acu-Link.com,2013-05-25 15:10:00,
2013-05-25 08:25:00,52.9,6.5,29.89,NW,315,0.0,-999.0,15,-99.99,,,0.00,Acu-Link.com,2013-05-25 15:25:00,
2013-05-25 08:40:00,54.3,9.1,29.89,SSW,202,1.7,-999.0,16,-99.99,,,0.00,Acu-Link.com,2013-05-25 15:40:00,
2013-05-25 08:55:00,55.8,11.7,29.88,SSW,202,1.7,-999.0,17,-99.99,,,0.00,Acu-Link.com,2013-05-25 15:55:00,
2013-05-25 09:10:00,57.2,12.8,29.88,NNE,22,0.0,-999.0,17,-99.99,,,0.00,Acu-Link.com,2013-05-25 16:10:00,
2013-05-25 09:25:00,59.7,8.8,29.88,WSW,247,0.0,-999.0,13,-99.99,,,0.00,Acu-Link.com,2013-05-25 16:25:00,
2013-05-25 09:40:00,62.1,19.4,29.89,NW,315,3.7,-999.0,19,-99.99,,,0.00,Acu-Link.com,2013-05-25 16:40:00,
2013-05-25 09:55:00,62.6,19.8,29.89,SW,225,1.7,-999.0,19,-99.99,,,0.00,Acu-Link.com,2013-05-25 16:55:00,
2013-05-25 10:10:00,63.9,22.1,29.89,West,270,0.0,-999.0,20,-99.99,,,0.00,Acu-Link.com,2013-05-25 17:10:00,
2013-05-25 10:26:00,65.3,22.0,29.89,SSE,157,2.2,-999.0,19,-99.99,,,0.00,Acu-Link.com,2013-05-25 17:26:00,
2013-05-25 10:41:00,68.9,22.3,29.91,SSW,202,2.7,-999.0,17,-99.99,,,0.00,Acu-Link.com,2013-05-25 17:41:00,
2013-05-25 10:56:00,71.4,28.2,29.92,WNW,292,2.7,-999.0,20,-99.99,,,0.00,Acu-Link.com,2013-05-25 17:56:00,
2013-05-25 11:11:00,71.8,24.6,29.91,WSW,247,2.7,-999.0,17,-99.99,,,0.00,Acu-Link.com,2013-05-25 18:11:00,
2013-05-25 11:26:00,71.2,30.4,29.90,West,270,3.2,-999.0,22,-99.99,,,0.00,Acu-Link.com,2013-05-25 18:26:00,
2013-05-25 11:41:00,68.9,33.5,29.91,South,180,13.0,-999.0,27,-99.99,,,0.00,Acu-Link.com,2013-05-25 18:41:00,
2013-05-25 11:56:00,70.5,37.6,29.91,SSW,202,5.3,-999.0,30,-99.99,,,0.00,Acu-Link.com,2013-05-25 18:56:00,
2013-05-25 12:11:00,71.8,30.9,29.91,West,270,2.7,-999.0,22,-99.99,,,0.00,Acu-Link.com,2013-05-25 19:11:00,
2013-05-25 12:26:00,71.1,38.9,29.91,SSE,157,3.2,-999.0,31,-99.99,,,0.00,Acu-Link.com,2013-05-25 19:26:00,
2013-05-25 12:41:00,72.0,38.0,29.93,SSW,202,2.2,-999.0,29,-99.99,,,0.00,Acu-Link.com,2013-05-25 19:41:00,
2013-05-25 12:57:00,73.4,36.4,29.92,SSW,202,3.7,-999.0,26,-99.99,,,0.00,Acu-Link.com,2013-05-25 19:57:00,
2013-05-25 13:12:00,72.1,37.2,29.91,SSE,157,5.8,-999.0,28,-99.99,,,0.00,Acu-Link.com,2013-05-25 20:12:00,
2013-05-25 13:27:00,73.2,39.9,29.92,NNW,337,1.7,-999.0,30,-99.99,,,0.00,Acu-Link.com,2013-05-25 20:27:00,
2013-05-25 13:42:00,67.8,36.1,29.91,South,180,3.2,-999.0,31,-99.99,,,0.00,Acu-Link.com,2013-05-25 20:42:00,
2013-05-25 13:57:00,70.7,33.1,29.91,West,270,6.8,-999.0,25,-99.99,,,0.00,Acu-Link.com,2013-05-25 20:57:00,
2013-05-25 14:12:00,70.3,29.7,29.91,South,180,3.2,-999.0,22,-99.99,,,0.00,Acu-Link.com,2013-05-25 21:12:00,
2013-05-25 14:27:00,73.0,24.2,29.91,SE,135,5.3,-999.0,16,-99.99,,,0.00,Acu-Link.com,2013-05-25 21:27:00,
2013-05-25 14:43:00,72.3,20.4,29.91,West,270,0.0,-999.0,14,-99.99,,,0.00,Acu-Link.com,2013-05-25 21:43:00,
2013-05-25 14:58:00,73.8,19.9,29.91,SW,225,3.2,-999.0,13,-99.99,,,0.00,Acu-Link.com,2013-05-25 21:58:00,
2013-05-25 15:13:00,73.9,23.3,29.92,South,180,2.2,-999.0,15,-99.99,,,0.00,Acu-Link.com,2013-05-25 22:13:00,
2013-05-25 15:28:00,71.8,30.9,29.92,West,270,3.7,-999.0,22,-99.99,,,0.00,Acu-Link.com,2013-05-25 22:28:00,
2013-05-25 15:43:00,70.3,35.6,29.92,North,0,4.7,-999.0,28,-99.99,,,0.00,Acu-Link.com,2013-05-25 22:43:00,
2013-05-25 15:58:00,71.2,39.0,29.92,WSW,247,3.2,-999.0,31,-99.99,,,0.00,Acu-Link.com,2013-05-25 22:58:00,
2013-05-25 16:13:00,70.7,40.2,29.91,WNW,292,1.1,-999.0,33,-99.99,,,0.00,Acu-Link.com,2013-05-25 23:13:00,
2013-05-25 16:28:00,72.0,39.7,29.91,West,270,6.3,-999.0,31,-99.99,,,0.00,Acu-Link.com,2013-05-25 23:28:00,
2013-05-25 16:44:00,68.4,40.4,29.91,NW,315,8.3,-999.0,36,-99.99,,,0.00,Acu-Link.com,2013-05-25 23:44:00,
2013-05-25 16:59:00,68.9,39.4,29.91,West,270,2.2,-999.0,34,-99.99,,,0.00,Acu-Link.com,2013-05-25 23:59:00,
2013-05-25 17:14:00,66.6,38.1,29.93,WSW,247,4.2,-999.0,35,-99.99,,,0.00,Acu-Link.com,2013-05-26 00:14:00,
2013-05-25 17:29:00,65.8,38.1,29.92,NNW,337,5.8,-999.0,36,-99.99,,,0.00,Acu-Link.com,2013-05-26 00:29:00,
2013-05-25 17:44:00,65.8,40.8,29.91,SSE,157,2.7,-999.0,40,-99.99,,,0.00,Acu-Link.com,2013-05-26 00:44:00,
2013-05-25 17:59:00,63.7,39.6,29.91,SW,225,0.0,-999.0,41,-99.99,,,0.00,Acu-Link.com,2013-05-26 00:59:00,
2013-05-25 18:14:00,62.2,40.6,29.91,SSW,202,2.7,-999.0,45,-99.99,,,0.00,Acu-Link.com,2013-05-26 01:14:00,
2013-05-25 18:29:00,60.6,40.8,29.91,SW,225,5.8,-999.0,48,-99.99,,,0.00,Acu-Link.com,2013-05-26 01:29:00,
2013-05-25 18:44:00,59.0,42.4,29.90,West,270,1.7,-999.0,54,-99.99,,,0.00,Acu-Link.com,2013-05-26 01:44:00,
2013-05-25 19:00:00,57.0,44.5,29.89,SSE,157,3.7,-999.0,63,-99.99,,,0.00,Acu-Link.com,2013-05-26 02:00:00,
2013-05-25 19:15:00,55.6,46.0,29.89,NNW,337,4.2,-999.0,70,-99.99,,,0.00,Acu-Link.com,2013-05-26 02:15:00,
2013-05-25 19:30:00,53.6,47.2,29.90,West,270,0.0,-999.0,79,-99.99,,,0.00,Acu-Link.com,2013-05-26 02:30:00,
2013-05-25 19:45:00,52.2,51.7,29.89,SW,225,1.1,-999.0,98,-99.99,,,0.00,Acu-Link.com,2013-05-26 02:45:00,
2013-05-25 20:00:00,51.3,50.8,29.90,West,270,0.0,-999.0,98,-99.99,,,0.00,Acu-Link.com,2013-05-26 03:00:00,
2013-05-25 20:15:00,50.4,49.9,29.89,NNW,337,0.0,-999.0,98,-99.99,,,0.00,Acu-Link.com,2013-05-26 03:15:00,
2013-05-25 20:31:00,49.5,49.0,29.88,South,180,1.7,-999.0,98,-99.99,,,0.00,Acu-Link.com,2013-05-26 03:31:00,
2013-05-25 20:46:00,49.6,49.1,29.88,NW,315,3.2,-999.0,98,-99.99,,,0.00,Acu-Link.com,2013-05-26 03:46:00,
2013-05-25 21:01:00,50.2,49.7,29.91,WSW,247,0.0,-999.0,98,-99.99,,,0.00,Acu-Link.com,2013-05-26 04:01:00,
2013-05-25 21:16:00,50.4,48.2,29.89,South,180,1.7,-999.0,92,-99.99,,,0.00,Acu-Link.com,2013-05-26 04:16:00,
2013-05-25 21:31:00,50.9,41.5,29.90,SSW,202,0.0,-999.0,70,-99.99,,,0.00,Acu-Link.com,2013-05-26 04:31:00,
2013-05-25 21:46:00,50.7,43.4,29.91,South,180,4.7,-999.0,76,-99.99,,,0.00,Acu-Link.com,2013-05-26 04:46:00,
2013-05-25 22:01:00,50.2,49.7,29.90,ESE,112,2.2,-999.0,98,-99.99,,,0.00,Acu-Link.com,2013-05-26 05:01:00,
2013-05-25 22:17:00,50.0,49.5,29.91,SSW,202,0.0,-999.0,98,-99.99,,,0.00,Acu-Link.com,2013-05-26 05:17:00,
2013-05-25 22:32:00,49.8,49.3,29.90,SW,225,1.7,-999.0,98,-99.99,,,0.00,Acu-Link.com,2013-05-26 05:32:00,
2013-05-25 22:47:00,49.6,49.1,29.91,SW,225,0.0,-999.0,98,-99.99,,,0.00,Acu-Link.com,2013-05-26 05:47:00,
2013-05-25 23:02:00,49.6,49.1,29.91,NNE,22,2.7,-999.0,98,-99.99,,,0.00,Acu-Link.com,2013-05-26 06:02:00,
2013-05-25 23:17:00,49.3,48.8,29.91,NNE,22,2.2,-999.0,98,-99.99,,,0.00,Acu-Link.com,2013-05-26 06:17:00,
2013-05-25 23:32:00,48.6,48.1,29.92,North,0,1.1,-999.0,98,-99.99,,,0.00,Acu-Link.com,2013-05-26 06:32:00,
2013-05-25 23:47:00,47.8,47.3,29.93,NE,45,0.0,-999.0,98,-99.99,,,0.00,Acu-Link.com,2013-05-26 06:47:00,